Location: Milton Keynes
(52.0316°N, 0.7531°W)
Time: 00:55:06
(UTC+00:00)

GENESIS II - Pass Details

Date: 02 February 2019
Orbit: 487 x 544 km, 64.5° (Epoch: 18 February)

Event Time Altitude Azimuth Distance (km) Brightness Sun altitude
Exits shadow 05:44:08 29° 220° (SW) 990 5.3 -18.2°
Maximum altitude 05:46:06 88° 132° (SE) 534 4.2 -17.9°
Drops below altitude 10° 05:50:08 10° 44° (NE) 1,793 7.4 -17.3°
Sets 05:52:21 0° 44° (NE) 2,696 8.4 -16.9°
